Weather observations for the past three days for
Lexington Blue Grass Airport
Imperial (Metric)
Date Time (edt) Wind (mph) Vis. (mi.) Weather Sky Cond. Temperature (ºF) Relative Humidity Wind Chill (°F) Heat Index (°F) Pressure Precipitation (in)
Air Dwpt 6 hour altimeter (in) sea level (mb) 1 hr 3 hr 6 hr
Max. Min.
24 02:54 NW 7 10.00 Fair CLR 72 66.9 84% 29.89 1011.0
24 01:54 NW 5 10.00 Fair CLR 73 68 82 73 84% 29.89 1011.1 0.06
24 00:54 W 3 10.00 Fair CLR 73.9 70 88% 29.88 1010.8
23 23:54 NW 6 10.00 Fair CLR 73.9 70 88% 29.87 1010.4
23 22:54 NW 5 10.00 A Few Clouds FEW041 75 72 90% 74 29.85 1009.7 0.06
23 21:54 NW 3 10.00 A Few Clouds FEW041 75.9 72 88% 76 29.83 1009.1 0.06
23 20:54 NW 9 G 22 3.00 Light Rain FEW020 BKN032 OVC039 80.1 71.1 74% 84 29.83 1008.9
23 19:54 W 9 10.00 Fair CLR 82 75 89.1 78.1 79% 89 29.82 1008.5 0.03
23 18:54 SW 10 10.00 A Few Clouds FEW041 82.9 75 77% 90 29.81 1008.2
23 17:54 SW 12 G 22 10.00 Mostly Cloudy SCT028 BKN036 BKN047 82 73.9 77% 88 29.81 1008.4 0.03
23 16:54 W 16 G 31 2.50 Heavy Rain OVC035 79 73 82% 82 29.82 1008.9
23 15:54 SW 13 G 23 10.00 Mostly Cloudy SCT040 BKN050 BKN055 88 72 59% 95 29.83 1008.8
23 14:54 SW 16 10.00 Mostly Cloudy FEW032 SCT039 BKN046 87.1 72 61% 94 29.84 1009.3
23 13:54 SW 18 G 28 10.00 Partly Cloudy SCT031 SCT120 84 71.1 86 78.1 65% 89 29.86 1009.7
23 12:54 SW 13 G 24 10.00 Fair CLR 84.9 72 65% 91 29.87 1010.2
23 11:54 SW 16 G 28 10.00 A Few Clouds FEW026 82.9 71.1 67% 88 29.88 1010.6
23 10:54 SW 12 10.00 Partly Cloudy FEW038 FEW095 SCT120 81 70 69% 84 29.87 1010.3
23 09:54 SW 15 G 23 10.00 Mostly Cloudy BKN060 BKN095 81 70 69% 84 29.9 1011.1
23 08:54 SW 9 10.00 Mostly Cloudy BKN100 BKN110 80.1 69.1 69% 83 29.91 1011.6
23 07:54 SW 10 10.00 A Few Clouds FEW095 78.1 68 78.1 75 71% 80 29.9 1011.3
23 06:54 SW 12 10.00 Fair CLR 75.9 68 77% 77 29.89 1010.8
23 05:54 SW 12 10.00 Fair CLR 75.9 68 77% 77 29.89 1010.8
23 04:54 SW 8 10.00 Fair CLR 75 68 79% 76 29.91 1011.6
23 03:54 S 9 10.00 Fair CLR 75.9 69.1 79% 77 29.92 1011.9
23 02:54 SW 7 10.00 Fair CLR 75.9 69.1 79% 77 29.93 1012.1
23 01:54 SW 8 10.00 Fair CLR 77 70 89.1 77 79% 79 29.93 1012.5
23 00:54 S 7 10.00 Fair CLR 79 70 74% 82 29.94 1012.6
22 23:54 S 6 10.00 Fair CLR 80.1 71.1 74% 84 29.95 1013.0
22 22:54 SW 7 10.00 Partly Cloudy FEW060 SCT080 81 71.1 72% 85 29.95 1012.7
22 21:54 SW 5 10.00 Fair CLR 82 71.1 69% 86 29.94 1012.8
22 20:54 SW 6 10.00 Fair CLR 84.9 71.1 63% 90 29.96 1013.2
22 19:54 SW 6 10.00 Fair CLR 89.1 71.1 95 89.1 55% 95 29.97 1013.5
22 18:54 SW 9 10.00 Fair CLR 91.9 69.1 47% 97 29.97 1013.7
22 16:54 W 10 10.00 Partly Cloudy FEW060 SCT110 93 68 44% 97 30 1014.8
22 15:54 SW 5 10.00 Mostly Cloudy SCT055 BKN080 91 70 50% 97 30.02 1015.4
22 14:54 Vrbl 5 10.00 Fair CLR 91.9 70 49% 98 30.04 1015.9
22 13:54 SW 6 10.00 Mostly Cloudy BKN100 90 70 93 77 52% 95 30.06 1016.7
22 12:54 W 8 10.00 A Few Clouds FEW110 91.9 70 49% 98 30.07 1017.1
22 11:54 SW 10 10.00 Fair CLR 90 70 52% 95 30.1 1017.9
22 10:54 SW 8 10.00 Fair CLR 89.1 71.1 55% 95 30.11 1018.2
22 09:54 S 3 10.00 Fair CLR 86 72 63% 92 30.12 1018.6
22 08:54 S 3 10.00 Fair CLR 82 72 72% 87 30.13 1019.0
22 07:54 Calm 9.00 Fair CLR 77 70 78.1 71.1 79% 79 30.14 1019.3
22 06:54 Calm 6.00 Fog/Mist CLR 73 69.1 87% 30.14 1019.6
22 05:54 Calm 8.00 Fair CLR 72 68 87% 30.14 1019.4
22 04:54 Calm 9.00 Fair CLR 73.9 69.1 85% 30.14 1019.5
22 03:54 S 3 8.00 Fair CLR 73.9 69.1 85% 30.13 1019.2
22 02:54 SE 5 10.00 Fair CLR 75.9 69.1 79% 77 30.13 1019.0
22 01:54 Calm 10.00 Fair CLR 75.9 70 91 75.9 82% 77 30.14 1019.3
22 00:54 Calm 10.00 Fair CLR 77 70 79% 79 30.14 1019.5
21 23:54 Calm 10.00 Fair CLR 81 70 69% 84 30.15 1019.6
21 21:54 Calm 10.00 Mostly Cloudy BKN065 86 69.1 57% 90 30.14 1019.5
21 20:54 Calm 10.00 Overcast OVC060 88 70 55% 93 30.14 1019.4
21 19:54 W 3 10.00 Mostly Cloudy BKN060 BKN090 91 68 95 90 47% 95 30.14 1019.5
21 18:54 N 5 10.00 Overcast OVC060 93 68 44% 97 30.15 1019.6
21 17:54 SW 6 10.00 A Few Clouds FEW060 91.9 68 46% 96 30.15 1020.0
21 16:54 Calm 10.00 Mostly Cloudy BKN090 93 66 41% 96 30.17 1020.6
21 15:54 Calm 10.00 Mostly Cloudy SCT060 BKN080 91 66 44% 94 30.19 1021.2
21 14:54 Calm 10.00 Partly Cloudy FEW060 SCT085 93 68 44% 97 30.21 1021.8
21 13:54 Vrbl 6 10.00 Partly Cloudy SCT050 SCT070 93 68 93 78.1 44% 97 30.23 1022.5
21 12:54 Vrbl 6 10.00 Partly Cloudy SCT050 91 68 47% 95 30.25 1023.3
21 11:54 NW 5 10.00 Fair CLR 91 70 50% 97 30.26 1023.6
21 10:54 N 3 10.00 Fair CLR 89.1 69.1 52% 94 30.27 1023.8
21 09:54 NW 5 10.00 Fair CLR 86 71.1 61% 92 30.28 1023.9
21 08:54 Calm 10.00 Fair CLR 82.9 70 65% 87 30.28 1024.0
21 07:54 Calm 10.00 Light Rain SCT070 78.1 72 78.1 70 82% 80 30.28 1024.2
21 06:54 Calm 9.00 Mostly Cloudy BKN065 72 68 87% 30.27 1023.9
21 05:54 Calm 9.00 Mostly Cloudy BKN065 73 68 84% 30.26 1023.6
21 04:54 Calm 10.00 Fair CLR 73 68 84% 30.24 1023.0
21 03:54 Calm 10.00 Fair CLR 72 66.9 84% 30.24 1022.9
Date Time (edt) Wind (mph) Vis. (mi.) Weather Sky Cond. Air Dwpt Max. Min. Relative Humidity Wind Chill (°F) Heat Index (°F) altimeter (in) sea level (mb) 1 hr 3 hr 6 hr
6 hour
Temperature (ºF) Pressure Precipitation (in)